Tracking 18980 objects as of 18-Feb-2018
HD Live streaming from Space Station
objects crossing your sky now

SL-23 R/B


SL-23 R/B is no longer on orbit


NORAD ID: 43090
Int'l Code: 2017-086D
Perigee: N/A
Apogee: N/A
Inclination: N/A
Period: N/A
Semi major axis: N/A
RCS: N/A
Launch date: December 26, 2017
Source: Commonwealth of Independent States (former USSR) (CIS)
Launch site: TYURATAM MISSILE AND SPACE COMPLEX (TTMTR)
Decay date: 2018-01-27

Note: This is a ROCKET BODY
aabbcc
Your satellite tracking list
Your tracking list is empty




NASA's NSSDC Master Catalog

Two Line Element Set (TLE):
1 43090U 17086D   18027.82811418  .12693400  12282-4  10291-3 0  9999
2 43090  51.3416 219.4537 0024111 190.4486 169.6939 16.50160136  5119
Source of the keplerian elements: AFSPC